Flag for U.S.A. Weather past 2 weeks in Atlanta, Georgia, U.S.A.

Now
63 °F

Clear.


Feels Like: 63 °F
Forecast: 64 / 87 °F
Wind: No wind

Location: Fulton County Airport-Brown Field

Current Time: Aug 27, 2014 at 9:00:46 AM

Latest Report: Aug 27, 2014 at 7:53 AM


Visibility: 10 mi

Pressure: 30.09 "Hg

Humidity: 90%

Dew point: 60 °F

Location of AtlantaLocation

Historic Weather in Atlanta — Graph

°F

Atlanta temperature yesterday

Maximum temperature yesterday: 87 °F (at 5:53 PM)
Minimum temperature yesterday: 63 °F (at 6:53 AM)
Average temperature yesterday: 74 °F

Past Weeks' High & Low Weather Summary

 TemperatureHumidityPressure
High92 °F (Aug 22, 3:53 PM)94% (Aug 12, 7:00 AM)30.15 "Hg (Aug 12, 7:00 AM)
Low61 °F (Aug 14, 5:53 AM)36% (Aug 13, 3:53 PM)29.82 "Hg (Aug 12, 4:53 PM)
Average77 °F72%29.99 "Hg
* Reported Aug 12 7:00 AM — Aug 27 7:53 AM, Atlanta, Weather by CustomWeather, © 2014

Note: Actual official high and low records may vary slightly from our data, if they occured in-between our weather recording intervals... More about our weather records

Advertising

Atlanta weather history for previous 24 hours

 ConditionsComfort  
Time TempWeatherWind HumidityBarometerVisibility
7:53 AM
Aug 27
63 °FClear.No wind90%30.09 "Hg10 mi
6:53 AM61 °FClear.No wind93%30.07 "Hg10 mi
5:53 AM62 °FClear.No wind90%30.06 "Hg10 mi
4:53 AM64 °FClear.No wind87%30.05 "Hg10 mi
3:53 AM64 °FClear.No wind87%30.06 "Hg10 mi
2:53 AM64 °FClear.No wind90%30.05 "Hg10 mi
1:53 AM65 °FClear.No wind91%30.06 "Hg10 mi
12:53 AM65 °FPassing clouds.No wind91%30.06 "Hg10 mi
11:53 PM
Aug 26
67 °FClear.No wind87%30.06 "Hg10 mi
10:53 PM69 °FClear.No wind81%30.06 "Hg10 mi
9:53 PM71 °FClear.No wind78%30.06 "Hg10 mi
8:53 PM73 °FSunny.No wind74%30.04 "Hg10 mi
7:53 PM84 °FSunny.5 mph40%30.03 "Hg10 mi
6:53 PM86 °FSunny.6 mph42%30.03 "Hg10 mi
5:53 PM87 °FSunny.7 mph39%30.02 "Hg10 mi
4:53 PM86 °FSunny.9 mph42%30.03 "Hg10 mi
3:53 PM85 °FSunny.7 mph43%30.04 "Hg10 mi
2:53 PM84 °FSunny.10 mph45%30.07 "Hg10 mi
1:53 PM82 °FSunny.5 mph46%30.10 "Hg10 mi
12:53 PM81 °FSunny.3 mph49%30.12 "Hg10 mi
11:53 AM78 °FSunny.8 mph54%30.14 "Hg10 mi
10:53 AM76 °FPassing clouds.9 mph62%30.15 "Hg10 mi
9:53 AM75 °FSunny.10 mph64%30.13 "Hg10 mi
Weather by CustomWeather, © 2014

See weather overviewHow to use our weather pages